Location: Pedro
(43.9050°N, 104.3408°W)
Time: 15:37:49
(UTC+00:00)

X-37B - Visible Passes

Search period start: 22 January 2022 00:00
Search period end: 01 February 2022 00:00
Orbit: 334 x 337 km, 45.0° (Epoch: 11 January)

Date Brightness Start Highest point End Pass type
(mag) Time Alt. Az. Time Alt. Az. Time Alt. Az.
26 Jan 3.3 02:07:13 10° SSW 02:07:38 13° SSW 02:07:38 13° SSW visible
27 Jan 2.8 00:53:48 10° SSE 00:54:56 12° SE 00:56:04 10° ESE visible
27 Jan 3.7 02:27:11 10° WSW 02:27:26 12° WSW 02:27:26 12° WSW visible
28 Jan 1.7 01:12:39 10° SSW 01:15:06 26° SSE 01:15:56 22° ESE visible
29 Jan 0.5 01:32:37 10° WSW 01:35:24 55° SSE 01:35:38 53° SE visible
30 Jan 1.0 01:52:59 10° W 01:55:16 54° W 01:55:16 54° W visible
31 Jan 0.7 00:38:03 10° WSW 00:40:50 54° SSE 00:43:37 10° E visible
31 Jan 2.6 02:13:30 10° W 02:14:53 25° W 02:14:53 25° W visible
